Wind_Speed
14 14 14 14 14 13 13 13 13 12 11 11 10 10 10 10 10 10 10 10 10 10 10 9 8 8 7 7 7 7 7 7 7 7 6 6 6 5 4 4 6 7 7 7 6 6 6 7 7 8 9 9 10 10 10 10 11 11 13 13 11 10 6 3 4 6 6 3 2 4 7 10 10 11 12 11 11 10 10 11 12 13 12 12 11 12 13 16
16 16 15 14 14 14 13 13 13 12 12 11 11 11 11 10 10 10 10 10 10 10 9 8 8 8 7 7 7 6 5 5 6 6 5 5 5 5 4 4 6 7 8 7 7 8 8 7 6 6 8 8 8 9 9 9 8 7 9 8 5 3 1 3 3 4 4 4 4 6 8 10 10 11 13 12 12 10 8 7 8 9 10 10 9 10 10 12
17 17 17 16 15 14 13 13 13 13 12 12 11 11 11 11 11 10 10 10 10 9 9 8 8 8 7 6 5 4 3 3 4 5 5 4 4 4 4 5 7 8 8 9 9 10 10 8 7 8 8 8 9 10 9 8 7 7 8 7 5 2 1 1 3 5 6 6 6 8 9 10 8 10 12 11 12 13 11 8 8 7 8 7 5 6 5 8
18 18 18 17 17 15 14 13 13 13 12 12 12 11 11 11 11 10 10 10 9 9 8 8 7 7 7 5 3 2 2 2 4 4 4 3 3 3 5 6 8 9 9 10 11 11 11 10 9 9 10 11 11 10 9 7 5 7 8 7 2 2 2 1 3 6 7 7 6 9 11 11 10 11 12 11 13 15 13 11 11 9 7 8 7 4 3 5
17 18 18 18 18 17 16 15 13 13 12 12 12 11 11 11 11 10 9 9 9 8 8 7 7 6 5 3 3 4 5 2 4 3 2 1 3 4 5 6 8 9 10 11 11 10 11 10 10 11 12 12 12 10 8 6 3 5 6 4 2 5 3 2 5 6 5 6 7 9 11 12 12 13 13 12 14 17 15 14 13 11 7 7 7 4 4 4
17 17 18 18 18 18 17 16 15 13 13 12 11 11 10 10 10 10 9 8 8 7 7 7 6 5 3 2 3 5 5 2 3 3 1 1 4 5 6 7 8 10 11 12 11 10 11 12 13 13 12 13 12 9 7 4 2 3 4 4 3 4 4 4 6 8 6 6 8 9 11 12 13 13 14 14 15 18 16 15 16 14 10 7 7 6 6 5
17 17 17 18 19 19 18 17 16 14 13 12 11 10 10 10 10 10 9 8 7 7 6 6 6 4 1 2 3 3 5 4 2 2 1 3 5 6 6 7 9 11 11 12 12 11 11 13 14 13 12 13 11 7 6 3 1 2 3 5 4 3 3 4 6 9 9 9 9 11 13 12 12 13 15 16 17 17 15 14 16 18 13 10 10 9 7 8
16 17 17 17 18 19 19 18 17 15 14 12 11 10 10 9 9 9 8 7 7 7 6 5 5 3 2 3 2 1 3 4 2 1 3 6 7 8 8 8 10 11 12 12 12 12 12 12 12 12 13 12 10 7 5 3 3 3 3 4 5 4 4 4 6 9 11 12 13 14 13 11 12 14 14 16 16 12 10 10 12 17 16 10 10 11 9 10
16 16 17 17 17 18 18 19 18 17 15 13 11 10 9 9 8 8 8 7 7 6 5 5 4 2 2 3 1 0 2 3 3 4 5 7 9 10 10 10 10 11 12 12 12 12 11 12 11 12 13 12 10 7 5 4 4 3 1 2 4 5 7 8 8 9 12 13 14 15 13 11 12 11 10 12 11 7 7 9 9 13 16 10 8 10 11 9
16 16 16 17 17 17 18 18 18 18 16 14 12 10 9 9 8 8 7 7 7 6 5 5 4 3 3 3 1 1 1 3 4 6 7 8 9 9 10 11 11 11 12 11 12 11 9 9 9 11 12 11 10 8 6 5 4 4 3 4 5 7 8 8 8 9 10 11 11 11 9 9 10 9 9 10 8 7 7 9 11 9 14 14 11 8 10 8
15 16 16 17 17 17 17 17 18 18 17 16 13 11 10 9 8 8 8 8 7 7 6 5 4 3 4 3 1 1 1 4 6 8 9 9 9 9 8 11 12 13 12 12 11 10 8 8 9 11 12 11 10 9 8 7 6 6 5 4 4 5 3 3 4 4 6 7 7 6 4 6 7 8 9 7 5 5 6 11 14 10 12 16 14 10 7 7
15 15 16 16 17 17 17 17 17 17 17 16 15 13 10 10 9 9 9 8 8 7 6 6 5 3 4 4 2 3 1 3 6 7 8 9 9 8 8 9 11 13 13 12 11 10 9 8 9 10 10 10 9 8 7 7 8 7 6 3 2 3 3 3 3 2 5 4 2 3 3 4 6 9 8 6 6 4 5 10 14 12 9 13 12 12 10 9
15 15 15 15 16 17 17 16 16 17 17 17 16 14 12 11 11 11 10 10 8 7 6 6 5 3 4 6 2 5 4 3 4 4 5 6 7 7 6 7 8 11 13 12 10 9 10 8 7 8 9 9 9 7 5 6 8 7 5 3 2 4 4 3 3 1 5 4 1 2 4 4 7 10 7 3 5 3 3 6 11 13 11 12 10 13 14 10
16 16 15 15 15 16 16 16 16 16 16 16 16 14 13 12 12 12 12 11 10 8 7 5 3 3 4 6 4 4 4 5 6 5 3 5 7 7 6 6 7 9 12 11 9 9 8 6 6 7 9 8 8 7 5 5 6 5 5 4 2 1 2 1 1 3 4 4 3 3 4 4 7 8 8 4 1 2 1 3 8 11 13 14 9 10 13 10
16 16 16 15 14 15 15 15 15 15 15 15 15 14 12 11 11 12 12 12 11 9 7 5 4 3 5 7 5 3 4 4 5 5 4 2 5 7 7 7 8 9 11 11 10 8 7 6 5 6 10 9 7 7 6 5 4 4 4 1 2 3 2 1 2 3 4 5 4 4 3 3 5 5 6 6 5 4 1 4 7 11 13 13 10 9 11 11
16 16 16 16 15 14 14 14 14 14 14 14 14 13 12 12 11 11 12 12 12 11 9 6 6 5 6 7 6 5 6 5 3 4 4 4 1 5 7 9 9 9 11 11 10 8 6 6 5 7 10 9 7 8 7 6 4 3 3 0 2 5 5 3 3 4 5 7 5 4 4 4 5 4 3 5 4 2 2 5 7 10 11 10 8 8 9 9
17 17 17 16 15 15 14 14 13 13 13 13 14 14 13 13 12 12 12 12 12 12 12 10 7 7 7 6 5 5 5 5 4 4 3 4 2 4 7 10 9 9 11 11 9 6 5 5 5 8 9 8 9 9 7 4 2 2 2 2 3 5 8 8 7 7 9 9 6 5 5 5 5 4 2 2 3 4 5 6 6 7 8 8 7 7 7 6
18 18 17 17 16 15 14 13 13 12 12 12 13 13 13 13 12 12 13 13 14 14 14 13 11 9 8 8 7 6 5 4 4 3 2 3 1 3 7 8 8 10 11 9 7 5 4 5 6 7 8 9 9 8 5 3 2 1 2 4 5 6 8 11 11 10 10 8 5 5 5 4 7 8 6 6 6 9 10 8 8 8 7 7 8 8 6 5
19 18 17 17 16 15 14 13 12 11 11 12 12 13 13 12 12 13 14 14 15 14 14 13 13 12 9 8 8 7 6 4 3 3 2 0 1 3 5 7 7 10 12 9 6 5 6 7 8 8 8 9 7 6 4 2 3 3 4 5 6 7 9 10 9 9 9 7 5 5 5 4 7 10 10 10 9 10 12 12 11 10 9 9 9 9 8 7
18 18 17 17 16 15 13 13 12 12 11 11 12 12 12 13 13 12 11 12 16 16 13 14 15 13 10 10 10 8 7 5 3 4 4 4 3 4 5 6 7 11 13 10 7 7 8 9 10 10 9 8 6 5 4 4 5 5 5 6 7 9 10 9 7 8 9 6 5 5 5 7 10 10 10 11 11 11 13 14 13 11 11 10 10 10 9 8
17 17 17 16 16 15 13 12 12 12 12 11 11 11 12 13 14 12 10 8 12 16 14 14 15 13 11 12 12 10 9 6 3 4 7 8 7 6 6 6 6 10 12 9 8 8 8 11 13 10 6 6 7 7 7 7 8 8 7 8 8 10 10 8 8 9 8 6 6 6 6 9 12 13 11 9 10 10 12 14 13 12 12 12 11 11 10 9
17 16 16 15 15 15 14 13 12 12 12 12 11 12 12 14 15 15 14 7 5 12 14 12 11 10 9 11 12 11 8 4 3 5 7 10 9 8 7 7 6 8 8 8 9 9 10 12 11 7 5 6 8 10 11 11 10 10 8 8 8 8 9 7 6 6 6 6 6 6 7 9 11 12 12 10 8 8 11 13 13 13 13 12 12 12 12 12
16 15 15 14 13 14 14 12 13 13 12 12 12 12 13 15 16 16 17 12 5 7 12 11 7 5 9 12 12 10 6 3 2 4 6 8 9 9 7 7 6 7 7 7 9 10 12 11 8 6 6 7 9 12 14 13 11 11 10 10 9 8 8 5 3 3 4 6 7 8 9 10 11 11 12 11 9 10 13 15 15 15 15 13 13 14 14 14
16 14 14 14 12 14 14 13 13 13 12 12 12 13 14 16 17 16 17 15 9 5 7 7 4 7 12 13 11 7 4 3 1 2 5 6 8 9 9 8 7 7 7 7 10 12 14 11 6 6 6 6 10 12 14 16 13 11 12 13 11 8 6 5 4 5 6 8 9 10 10 11 12 13 13 12 11 13 16 17 18 18 17 16 16 16 16 16
17 15 13 13 12 12 14 13 12 12 12 12 12 13 15 16 17 17 17 14 9 4 2 2 6 11 13 12 9 6 4 2 1 2 5 6 7 10 11 11 10 8 7 9 11 14 15 13 8 6 4 4 7 8 11 15 14 12 14 13 11 8 7 6 6 7 9 8 7 8 6 5 7 10 12 12 13 15 18 20 20 19 19 18 18 18 18 18
18 16 14 13 12 11 13 14 11 11 11 12 12 13 15 16 16 16 15 10 6 3 2 4 7 11 12 10 7 6 4 1 0 1 4 5 7 9 10 12 11 9 10 11 11 12 14 14 10 7 5 4 5 6 8 11 13 13 13 12 11 9 7 6 7 7 7 7 7 8 5 4 6 8 9 11 14 17 20 21 21 20 20 19 19 19 19 20
18 17 14 13 14 12 12 14 13 12 11 11 12 13 14 15 15 15 11 5 4 3 3 4 6 7 8 7 5 5 3 0 1 1 3 4 6 7 8 9 9 8 10 10 9 9 11 12 11 10 8 7 7 8 8 10 12 14 13 11 11 9 8 7 8 8 8 10 11 11 8 8 10 11 10 12 14 17 21 21 20 20 19 19 20 20 20 20
18 18 15 13 14 14 12 12 12 12 12 11 12 12 13 13 13 11 5 2 3 3 3 5 5 5 5 6 4 4 4 2 2 2 3 4 4 5 6 6 6 6 7 9 8 7 8 9 10 9 9 8 8 7 8 9 11 12 10 10 11 11 10 10 9 8 8 10 11 11 9 7 8 10 11 12 16 19 20 21 20 19 19 19 20 20 20 20
18 18 17 14 13 13 13 11 10 11 11 11 11 12 12 11 9 7 2 0 2 3 3 5 5 4 4 6 4 4 5 4 2 4 4 4 4 4 5 5 5 5 5 8 9 8 6 7 8 9 9 8 7 7 8 9 9 9 9 10 11 11 11 11 10 10 8 7 11 12 8 6 6 9 12 16 20 21 21 22 21 21 20 20 21 21 21 20
18 18 18 17 14 13 12 11 9 9 9 9 10 10 9 8 7 4 1 1 1 3 3 4 4 3 3 5 5 4 4 3 4 6 7 6 6 5 6 6 7 8 8 9 10 10 9 8 9 11 11 10 8 8 9 10 10 10 10 11 12 11 12 12 11 10 6 5 9 9 7 6 5 7 11 15 16 18 21 23 22 22 22 21 21 22 22 20
19 19 19 19 17 14 12 10 8 7 7 8 7 6 6 6 5 2 0 1 2 1 3 4 2 2 2 3 4 4 5 5 6 8 8 8 8 7 7 7 7 7 9 10 10 11 11 8 8 10 11 11 10 10 10 10 11 11 11 12 11 9 9 9 8 6 3 3 5 4 5 6 6 6 9 10 11 13 18 21 21 21 20 20 21 23 23 22
19 19 20 20 19 15 11 8 7 6 6 6 5 4 5 5 2 2 2 4 3 2 2 2 0 1 3 4 4 4 5 5 5 7 8 9 9 9 9 9 7 7 7 7 7 9 10 9 8 8 10 11 11 11 11 11 11 10 9 11 9 3 2 3 3 2 3 5 6 5 5 6 10 12 11 12 12 13 15 17 19 19 19 19 20 22 23 23
18 19 20 21 19 14 10 8 7 7 6 5 5 5 5 3 0 2 4 5 3 3 4 4 4 5 5 5 5 5 4 4 4 5 6 8 9 9 10 10 10 10 9 7 6 6 7 8 9 9 9 10 12 12 12 11 9 10 10 10 7 2 3 2 3 1 4 5 6 7 6 6 10 12 12 13 15 16 17 18 18 19 20 19 20 21 23 24
18 19 21 21 18 13 9 8 8 7 7 6 6 5 4 2 1 2 4 5 5 7 8 8 9 10 8 7 6 5 5 4 4 4 4 5 6 6 7 8 9 10 11 10 9 6 5 6 6 7 8 9 12 13 12 10 8 9 11 10 9 7 3 3 3 2 3 3 3 5 4 3 5 6 7 8 10 13 16 18 19 19 21 22 22 23 24 25
19 20 21 19 15 11 9 8 8 7 6 5 5 5 3 2 1 2 4 6 7 9 10 10 9 9 5 3 4 3 3 4 3 4 4 3 3 3 5 7 8 8 8 8 7 6 7 7 7 8 8 8 11 13 13 13 10 9 12 13 12 11 9 6 4 4 4 2 3 6 7 9 11 11 12 12 12 11 12 15 17 17 21 24 25 25 25 25
18 19 18 14 11 9 9 8 7 7 5 4 5 3 0 0 1 2 4 7 9 10 11 10 7 6 3 1 1 2 1 3 3 4 4 3 2 2 2 2 3 4 6 6 5 5 6 6 6 8 9 9 11 11 12 13 12 9 11 14 12 9 9 7 4 3 2 1 3 6 9 12 14 14 14 13 11 10 9 11 13 15 20 24 25 25 25 24
17 16 13 10 8 8 8 8 7 6 5 4 4 1 2 1 0 2 4 6 8 10 11 10 8 7 6 5 5 5 3 3 3 4 4 4 3 4 4 2 1 1 4 6 6 6 8 7 7 8 10 10 12 12 12 13 14 12 11 12 10 8 8 8 3 0 1 1 4 6 9 11 9 8 9 9 8 8 8 9 11 14 19 21 22 23 23 23
16 12 8 6 6 6 7 6 6 6 6 5 4 2 2 2 1 2 4 5 7 8 9 9 7 7 9 10 11 11 10 7 7 5 3 5 5 5 5 4 3 2 3 5 6 7 9 9 8 9 10 10 10 13 13 13 16 17 14 12 10 7 6 7 4 0 1 1 2 4 8 11 11 11 11 11 9 8 7 9 11 14 16 17 19 20 21 22
14 9 5 4 4 4 5 6 6 6 5 3 1 1 1 0 1 3 5 6 7 8 8 8 8 8 10 12 13 14 13 12 13 10 4 5 6 7 8 7 6 4 2 4 5 5 6 7 7 9 10 10 9 10 12 13 15 17 15 13 12 10 7 7 7 4 3 2 2 2 3 6 10 12 11 10 8 7 8 10 12 13 15 16 17 19 21 22
11 7 4 3 3 3 5 6 6 6 4 1 2 2 2 2 2 4 6 7 8 9 8 9 10 10 11 12 13 15 15 14 14 13 8 6 7 7 9 10 10 8 6 5 6 6 6 8 8 8 8 9 10 9 11 12 12 13 13 13 13 12 10 8 8 8 6 3 2 1 2 6 10 11 9 9 8 9 12 14 15 16 16 17 18 20 22 22
9 7 4 3 3 3 4 6 5 4 2 1 2 2 2 3 4 6 7 9 10 10 9 10 10 11 11 12 13 15 16 16 15 14 10 8 8 8 9 10 11 11 9 8 8 7 8 9 10 10 10 11 11 11 13 15 14 12 12 13 14 13 11 7 5 10 11 7 4 3 2 8 11 12 11 11 11 12 14 16 17 17 17 17 18 19 21 22
8 7 5 4 4 3 4 5 4 3 1 2 1 1 1 3 5 7 9 10 9 8 9 10 11 11 12 12 13 14 15 16 16 13 11 9 9 9 9 10 11 12 10 8 9 10 11 11 12 13 11 11 12 11 13 15 16 16 15 14 14 15 15 11 5 7 11 10 8 5 3 7 12 14 12 12 12 12 13 15 16 16 16 16 16 17 19 21
8 7 6 5 5 4 4 4 4 3 1 0 1 2 3 5 7 8 9 9 8 9 10 10 11 11 12 12 12 13 14 14 13 11 11 11 11 12 11 11 11 11 9 9 9 11 12 11 11 11 10 11 12 12 12 13 13 15 16 15 14 15 17 17 12 10 9 10 9 4 2 7 13 15 12 11 12 12 12 13 15 16 16 16 15 17 19 21
9 8 7 6 5 4 5 4 3 3 3 3 4 4 6 7 9 9 9 10 11 12 12 11 11 11 12 11 11 12 12 11 10 10 11 13 14 15 15 14 13 12 12 12 10 11 11 10 9 7 6 6 7 7 7 8 7 9 10 11 12 13 13 13 14 12 9 11 12 7 5 11 15 14 13 13 13 13 13 14 14 15 16 16 17 18 20 23
9 9 8 8 6 5 4 4 3 4 5 5 5 6 7 7 9 11 11 11 12 13 12 12 12 12 12 12 12 11 11 12 12 12 13 14 15 15 15 15 14 13 14 15 14 13 11 12 12 8 4 4 4 3 4 6 7 9 10 9 10 10 9 9 10 10 9 9 12 12 11 16 18 16 17 16 15 14 15 14 15 16 16 17 18 20 22 24
7 8 8 9 7 5 4 3 4 5 5 6 6 7 8 8 9 11 11 10 11 12 13 13 13 14 14 14 13 12 12 13 13 14 14 15 16 15 15 17 17 15 14 16 17 14 10 12 14 13 12 13 12 10 9 10 11 13 13 13 13 13 13 12 11 13 13 10 14 20 19 20 22 20 18 16 14 16 16 15 16 16 16 17 18 20 23 25
7 6 7 7 6 5 5 4 6 8 8 9 9 9 10 10 10 11 11 10 10 12 13 14 15 15 15 16 16 14 13 12 13 14 15 16 17 17 16 16 16 15 14 13 13 11 10 12 14 14 16 17 16 15 14 13 15 16 16 17 17 15 16 17 17 19 18 13 17 24 22 21 23 21 17 16 16 17 17 17 18 17 16 17 17 20 22 24
8 7 6 6 4 4 5 5 6 8 10 11 11 11 11 12 11 11 11 10 11 13 14 15 16 16 16 16 17 16 15 14 13 13 13 14 16 16 16 15 13 12 11 10 9 9 11 13 13 14 17 17 18 18 17 15 16 18 19 20 19 18 18 20 21 22 21 18 21 24 22 22 24 21 19 19 17 16 17 17 18 18 18 18 18 20 21 22
7 7 7 6 5 4 4 4 5 7 8 9 10 10 10 11 11 11 12 13 13 15 15 15 15 15 15 17 18 18 17 15 14 14 14 15 15 16 16 15 12 11 10 9 9 9 10 12 12 12 15 16 17 19 18 18 18 21 23 23 21 21 21 22 23 23 24 25 26 26 24 25 24 20 18 17 15 15 16 16 17 18 19 19 20 21 21 22
6 6 6 6 6 5 5 5 6 7 7 7 8 9 9 11 11 11 13 14 15 15 15 15 15 16 16 17 18 18 17 16 15 15 15 16 17 17 16 15 13 13 12 12 12 11 11 12 11 11 14 15 15 16 17 18 19 22 24 24 23 23 23 24 25 24 26 28 27 25 25 26 22 17 15 14 14 15 16 17 18 18 17 17 19 20 20 20
6 5 5 5 7 7 7 7 7 8 7 6 7 8 9 10 11 11 13 14 13 14 15 16 17 18 18 18 20 21 21 20 18 17 18 20 20 19 18 17 17 18 18 16 15 14 14 14 13 13 15 17 17 15 15 16 18 23 27 25 23 24 24 24 24 24 24 25 24 23 24 23 18 14 15 15 15 16 17 18 18 16 14 14 16 16 16 16
8 5 5 5 7 8 9 9 8 8 8 7 6 7 8 9 10 11 12 12 12 14 16 17 19 21 21 21 22 22 22 23 22 20 20 21 22 21 20 19 19 20 21 18 16 16 16 16 17 15 13 15 16 15 14 12 12 17 21 18 15 15 16 17 17 16 15 15 17 19 20 18 16 16 17 16 16 17 18 18 16 13 10 10 11 11 12 14
Wind_Direction
358 353 349 346 344 342 340 339 337 336 334 332 330 327 324 323 321 321 321 318 316 315 315 315 314 315 315 314 311 308 305 300 293 292 290 283 275 261 244 225 212 210 211 206 200 194 187 191 196 201 203 203 201 197 198 201 210 220 223 231 242 251 262 307 326 308 293 268 251 295 321 314 311 314 307 306 312 314 318 312 303 292 262 246 247 247 248 243
2 358 353 348 344 341 337 335 332 332 331 330 330 328 325 324 321 320 321 318 315 315 315 314 314 314 315 314 312 310 306 300 296 298 298 289 277 264 251 227 207 203 204 197 188 175 166 165 164 174 180 182 180 176 178 178 186 202 213 221 212 194 125 43 10 347 322 291 289 311 321 317 316 321 315 309 310 308 320 316 297 286 247 237 243 237 242 241
4 1 357 353 347 342 337 334 332 330 329 327 327 326 325 323 319 319 320 318 315 314 314 314 315 315 317 316 312 305 295 310 308 309 316 306 288 265 234 211 197 193 194 191 184 173 162 150 147 155 156 157 155 155 156 155 169 185 198 193 147 125 299 339 318 323 318 298 301 316 319 319 318 324 322 313 311 310 313 319 318 293 238 219 225 238 252 241
2 1 359 357 353 347 341 337 333 329 327 325 326 326 325 321 317 317 318 317 314 313 313 313 314 317 320 313 301 261 215 345 333 321 330 312 282 244 210 194 185 184 186 186 183 177 165 151 149 151 147 145 138 134 137 136 164 189 193 185 142 300 265 186 290 309 316 305 308 313 311 311 310 318 321 312 312 314 304 302 319 315 261 222 219 248 243 229
356 357 358 357 356 353 348 340 335 330 328 326 327 327 324 320 315 315 317 315 312 312 313 313 315 318 319 303 269 239 229 320 336 314 338 310 229 209 190 177 174 178 180 181 182 177 165 157 156 154 150 146 135 131 140 140 175 201 207 215 273 284 254 210 265 280 295 304 304 302 303 303 304 310 312 311 314 314 299 286 298 310 296 239 221 234 212 218
351 352 353 354 354 355 352 346 339 334 331 329 330 329 325 319 314 315 315 313 311 311 313 312 314 316 314 273 238 242 234 255 331 315 349 182 188 183 171 164 169 174 176 177 177 172 160 159 161 160 160 155 147 143 147 148 179 209 229 230 244 272 271 267 261 260 262 275 286 293 299 300 303 304 303 307 309 308 300 283 280 288 298 281 250 243 229 232
347 347 349 350 351 352 352 351 345 339 334 331 331 331 328 321 315 315 314 313 310 310 313 309 310 308 286 215 214 237 224 219 288 318 185 173 162 157 159 161 169 172 173 172 171 168 162 162 164 166 170 166 156 144 141 138 138 159 192 195 197 230 267 279 261 258 261 268 276 283 289 298 307 302 298 300 300 304 302 283 273 275 285 289 263 243 224 215
344 344 345 347 348 349 350 351 349 344 337 333 333 332 329 322 317 315 313 312 308 309 311 303 304 292 213 189 193 228 226 225 253 239 177 168 149 144 154 165 172 174 174 175 174 172 169 169 170 170 171 169 161 147 148 148 148 153 156 180 206 229 252 271 265 263 268 270 272 273 278 296 308 303 296 293 298 304 288 260 252 263 271 274 247 223 198 197
340 341 342 344 345 347 348 349 350 348 343 337 334 334 330 324 319 315 312 310 307 308 306 297 294 265 201 187 179 88 239 227 207 178 167 164 153 147 156 168 176 177 177 181 183 180 177 178 180 179 176 172 170 169 174 176 183 197 209 232 237 249 261 273 281 281 279 276 273 273 275 290 304 307 298 292 298 291 256 230 216 248 257 251 248 219 187 181
337 338 339 341 343 344 346 348 348 349 347 343 338 334 331 324 318 313 308 307 305 305 302 292 280 243 196 184 171 35 264 226 194 173 160 158 159 157 161 170 176 181 181 184 189 189 188 190 193 194 190 184 182 187 191 200 226 239 259 277 262 263 270 276 284 283 287 289 282 279 277 286 297 302 296 292 294 275 245 220 209 233 244 244 263 233 191 188
334 335 337 338 340 342 344 346 347 348 349 348 343 336 330 323 316 311 306 305 304 302 298 289 276 242 199 173 115 32 270 227 202 181 166 159 161 161 162 171 180 186 188 190 195 199 208 223 230 220 210 202 199 208 214 219 239 255 263 271 259 263 266 251 264 279 300 300 282 279 286 294 299 307 304 287 278 264 233 221 228 247 244 240 247 223 205 218
331 332 333 335 336 338 341 343 344 346 348 349 348 342 333 321 312 308 305 303 300 297 293 284 277 251 198 177 94 43 13 218 207 194 180 169 168 169 168 174 184 189 194 199 204 210 221 239 240 228 220 216 212 218 228 227 238 256 261 259 233 200 147 165 204 302 338 326 258 259 293 315 327 337 330 270 247 256 243 231 240 255 238 228 235 232 245 257
329 330 330 332 333 334 337 340 342 344 346 349 349 348 340 326 316 310 307 302 295 290 286 278 270 246 193 194 154 69 81 120 146 179 194 185 181 181 183 187 191 194 194 195 198 204 215 227 220 211 212 210 204 201 214 228 234 248 253 270 238 171 143 162 199 303 359 6 199 263 317 336 340 347 0 264 241 251 254 242 242 248 231 219 234 238 240 246
326 327 328 329 329 330 332 336 339 341 344 347 348 350 347 335 323 316 311 303 295 289 281 271 245 204 186 198 185 106 105 107 97 107 160 203 208 203 204 209 204 199 192 189 194 197 201 200 188 189 190 187 189 194 207 221 222 231 244 274 282 193 120 114 264 303 347 352 279 282 315 331 335 347 28 58 55 44 326 261 236 228 217 208 210 227 231 237
324 325 326 327 327 327 328 331 336 338 341 344 345 348 345 336 325 315 309 302 298 292 280 256 225 210 189 195 203 169 147 133 97 89 99 142 213 204 203 203 191 190 189 186 190 188 176 167 170 176 175 176 181 188 197 201 202 219 225 250 321 314 337 46 8 328 330 340 310 280 287 316 318 324 11 31 28 25 346 246 217 201 198 193 189 208 225 241
322 323 324 325 326 326 326 327 331 335 338 339 339 341 338 329 320 308 299 295 293 292 284 262 238 228 198 191 204 190 162 148 113 71 64 58 131 178 176 173 173 183 186 183 182 178 168 168 176 174 175 186 191 188 189 189 192 207 207 200 327 317 322 316 338 336 321 332 329 287 275 292 285 268 330 352 354 354 246 228 217 200 199 197 200 215 222 240
320 322 322 323 325 326 326 325 327 331 334 334 332 334 333 325 317 307 297 289 285 282 278 270 250 227 210 204 200 188 176 158 121 81 44 22 45 166 166 164 173 190 190 183 176 172 176 181 177 173 180 191 195 196 193 183 181 189 216 276 308 314 319 314 314 317 312 319 326 299 282 273 255 223 206 270 248 228 228 233 227 212 212 217 219 221 223 242
317 319 321 322 323 324 326 325 326 329 331 329 325 328 330 326 321 311 301 292 284 277 271 268 255 233 225 223 207 196 197 180 139 117 81 0 345 196 184 174 183 196 193 184 174 178 195 195 185 180 187 191 193 203 202 196 232 255 261 286 306 307 312 316 318 320 309 306 313 302 302 267 239 232 223 229 220 219 232 236 224 220 222 223 216 209 222 257
315 317 318 320 320 322 325 325 326 329 330 326 322 326 327 327 324 313 308 302 291 279 265 257 250 236 228 222 213 215 224 215 175 158 159 270 214 195 189 182 190 198 194 189 189 204 209 202 197 193 190 187 189 201 200 196 235 263 286 290 301 299 301 306 310 320 312 298 296 292 306 290 255 255 250 248 234 221 233 234 225 225 227 226 221 218 235 262
314 314 316 318 319 320 323 324 326 329 329 324 320 323 322 323 322 314 313 306 292 284 268 254 249 239 224 216 222 240 251 243 219 194 180 169 170 174 179 185 195 199 198 200 214 220 217 213 206 197 188 186 192 205 206 202 215 238 263 276 286 283 290 296 289 302 307 292 279 278 294 298 290 287 271 253 244 237 235 230 228 231 231 232 233 235 245 256
314 312 313 316 317 319 322 323 325 328 328 322 317 318 319 323 325 321 316 295 282 285 277 259 251 244 227 215 226 248 254 248 243 217 185 172 178 187 191 198 202 203 203 215 229 227 228 220 206 198 206 215 218 224 220 213 217 229 249 272 283 281 284 286 278 286 295 288 283 286 292 290 288 289 284 263 248 250 244 236 239 240 235 235 241 248 255 262
315 310 309 312 315 315 319 323 324 326 327 321 318 320 322 326 329 329 324 311 273 274 274 269 262 251 225 211 222 237 236 227 244 236 201 182 187 198 204 203 202 206 214 233 237 238 242 223 203 209 248 243 230 224 215 212 221 227 244 270 279 286 285 276 280 288 286 288 292 295 294 284 278 276 277 271 248 237 238 241 248 249 244 245 254 261 266 274
316 311 306 306 311 311 315 322 322 324 326 319 319 322 324 326 329 333 328 324 319 271 267 277 280 226 194 196 208 219 210 188 217 239 213 191 194 211 215 204 205 217 228 246 245 246 244 221 206 237 253 242 226 219 217 221 228 231 248 269 275 285 282 262 275 293 286 298 299 297 296 287 278 272 271 266 244 223 224 232 236 239 244 253 262 266 267 273
314 313 310 304 305 306 308 316 319 321 322 317 320 321 322 326 328 333 330 326 332 303 266 269 242 178 176 182 190 198 191 191 233 251 224 209 211 226 225 219 233 241 243 261 259 251 240 225 233 257 251 235 227 230 231 229 234 244 255 264 268 274 272 260 267 278 293 304 301 300 296 281 271 268 266 258 242 228 224 228 231 233 239 248 255 258 257 260
316 315 314 309 306 304 305 312 316 317 317 315 319 321 321 324 325 330 330 328 338 338 251 188 170 170 174 177 181 191 204 227 273 279 249 236 229 235 235 235 246 251 262 281 273 254 240 236 245 248 246 237 236 254 246 231 237 252 256 255 256 259 257 261 272 284 295 297 297 307 304 273 262 261 256 249 239 229 223 225 230 234 239 246 250 251 251 256
321 320 318 312 308 305 303 307 310 309 310 311 317 318 318 321 323 326 326 327 351 22 118 139 153 163 172 177 184 203 229 250 270 284 255 237 234 238 238 240 249 259 275 287 280 253 237 234 234 230 234 229 231 261 252 234 237 247 253 251 245 247 248 257 279 291 292 286 290 299 289 256 270 268 254 248 241 230 224 225 229 235 241 247 250 249 250 256
328 328 327 317 309 306 300 300 302 302 301 304 311 312 313 318 320 323 326 336 16 41 93 130 149 158 174 186 193 211 226 270 15 300 249 231 237 238 239 248 258 270 276 274 265 242 225 222 227 232 236 235 244 259 252 241 238 245 257 252 242 248 251 262 283 286 284 286 287 287 273 260 268 267 252 246 240 229 226 228 231 236 242 246 248 248 249 251
335 336 337 329 314 309 305 301 301 301 301 303 306 303 306 314 317 322 339 31 15 24 80 124 151 156 177 200 214 217 229 283 309 246 210 219 237 244 250 257 262 273 266 248 234 211 204 214 221 222 225 232 245 254 251 246 243 249 258 250 244 250 254 263 275 275 282 289 283 279 273 262 263 259 244 229 225 226 230 235 238 241 245 249 250 249 247 247
340 339 341 338 323 311 308 307 306 305 306 306 304 299 302 310 312 321 343 90 16 37 89 129 154 163 178 200 218 227 242 272 261 212 211 224 238 254 256 246 248 259 257 245 227 200 201 222 219 217 220 221 230 252 256 248 243 251 255 247 244 247 254 265 265 266 280 279 274 281 275 256 263 257 234 215 219 232 239 240 242 245 247 250 251 250 247 246
339 338 339 339 332 316 305 306 310 310 311 312 309 302 302 307 309 322 341 196 51 67 106 134 146 158 181 202 211 219 240 261 239 226 229 234 238 252 257 258 261 256 258 262 241 221 229 242 235 238 236 226 232 248 247 240 244 252 251 245 244 250 259 264 262 263 278 273 270 282 272 248 254 255 240 232 243 256 250 243 244 245 245 247 249 249 247 246
334 335 336 337 335 323 306 302 303 304 311 318 322 315 308 311 306 307 29 270 296 54 143 145 135 168 204 241 236 230 258 274 252 237 238 242 245 252 261 270 275 265 264 263 245 234 241 246 246 251 248 239 240 244 238 237 245 253 253 245 245 254 258 260 261 249 240 268 260 259 271 255 234 243 259 263 273 272 258 254 256 254 252 253 253 250 247 246
327 330 333 334 335 326 307 293 287 290 305 315 328 338 330 329 296 244 300 308 295 280 203 181 12 249 242 277 274 257 272 277 248 233 241 249 251 256 264 270 273 273 271 258 242 240 241 241 254 264 254 240 234 234 231 231 239 247 246 237 234 250 286 263 266 225 232 256 240 236 277 268 248 257 270 272 273 267 260 261 262 261 263 263 260 254 249 248
323 327 330 333 334 326 304 284 275 280 292 293 306 330 343 359 2 266 313 326 352 346 299 267 283 283 275 281 271 255 268 271 242 237 247 251 252 256 263 270 267 261 262 259 251 249 242 244 261 266 252 235 227 226 225 227 235 240 234 228 221 157 71 274 269 309 274 258 235 242 266 265 261 269 269 265 268 265 260 258 257 258 259 264 265 259 252 251
323 325 329 332 333 324 300 280 273 275 278 280 296 318 333 351 323 293 318 324 334 334 318 302 290 285 288 292 284 270 263 251 240 250 251 242 248 257 262 268 264 254 253 252 246 242 244 247 254 250 237 225 220 219 224 230 236 239 232 231 232 222 208 232 228 213 243 244 219 228 245 248 255 266 266 267 271 267 263 258 255 252 248 252 255 251 250 252
324 326 328 329 329 321 298 280 276 276 271 280 308 319 322 340 339 307 319 323 324 323 328 331 316 305 312 313 316 318 256 221 214 242 247 232 236 251 259 262 257 245 239 239 234 228 244 257 254 243 233 219 218 221 227 232 235 237 232 232 241 241 237 237 229 220 226 258 255 235 242 254 259 267 274 277 277 273 266 259 256 246 237 240 244 246 249 253
323 325 324 323 325 322 307 295 288 281 272 294 320 322 260 66 22 348 334 330 328 328 335 343 335 328 338 247 297 3 226 221 223 230 227 212 195 169 186 256 256 233 214 213 219 213 232 259 254 238 230 219 220 226 229 232 235 232 225 230 239 241 236 234 234 235 218 262 259 235 242 256 266 275 276 273 276 274 266 265 262 245 234 237 243 248 253 257
321 323 322 320 322 321 312 306 299 289 282 298 310 279 163 185 280 340 338 332 332 337 340 345 347 339 332 307 295 301 284 253 238 226 205 201 199 165 154 151 146 220 208 208 229 227 226 245 246 237 240 236 233 237 242 241 237 230 224 229 235 234 231 227 225 41 99 247 252 229 237 253 258 268 277 278 286 288 279 274 262 243 238 244 251 256 260 264
326 328 329 325 322 314 299 291 291 289 286 290 289 233 187 198 216 300 327 334 340 344 341 342 346 338 328 321 311 304 300 286 273 266 217 206 215 190 189 187 169 210 227 217 240 240 227 239 250 245 255 269 260 249 250 245 232 230 232 232 232 230 216 206 204 190 173 248 282 241 239 249 250 261 283 291 292 295 290 277 265 255 254 260 264 266 269 271
336 345 354 337 322 312 286 275 280 284 283 290 288 156 154 208 255 311 328 334 336 339 340 338 333 325 322 319 312 307 303 295 290 297 288 238 229 207 209 216 202 204 220 225 242 239 220 234 249 246 257 278 276 254 248 241 228 227 232 231 231 234 225 208 207 205 189 202 266 278 256 254 262 276 293 298 291 286 280 279 279 278 277 276 275 275 275 275
350 3 8 335 311 297 277 277 285 286 284 297 102 97 57 14 341 338 335 332 331 330 329 327 321 317 315 313 309 305 302 296 295 304 310 274 246 226 228 237 236 231 227 234 241 239 237 244 251 253 254 261 267 265 254 243 227 220 224 223 221 225 225 225 229 224 212 186 172 200 264 260 272 290 297 292 286 279 279 285 287 285 282 279 277 277 277 277
4 9 6 346 333 311 294 298 304 305 296 118 109 84 37 3 346 339 332 329 329 325 322 322 319 316 314 310 307 304 302 297 293 295 298 285 264 249 240 241 247 243 234 239 242 237 241 249 254 257 255 254 262 267 258 248 234 224 226 226 225 228 224 218 231 227 223 223 205 186 245 260 270 286 290 287 284 280 282 284 283 279 274 273 275 276 277 278
12 13 10 3 359 352 339 334 337 353 64 125 103 57 337 329 330 328 330 332 331 329 328 323 317 314 312 308 305 304 302 301 299 291 280 275 268 252 235 232 242 243 237 243 248 246 248 253 259 263 263 263 265 265 263 260 250 240 240 239 237 241 234 222 219 220 218 225 230 236 262 263 274 284 286 286 286 285 284 280 278 276 270 267 268 270 272 274
12 16 13 4 354 346 350 352 347 349 2 231 331 326 311 318 322 321 327 334 333 333 332 325 319 316 312 307 304 304 302 300 300 288 268 262 259 250 239 235 240 242 241 244 248 252 253 251 256 266 270 266 266 269 271 270 257 242 238 237 234 236 235 231 232 233 225 222 224 228 238 252 274 286 286 288 294 295 294 286 278 274 268 264 264 266 269 270
2 6 4 357 344 328 331 334 323 304 288 290 304 310 313 318 317 316 320 324 324 326 327 327 328 325 320 316 310 306 304 299 295 287 277 271 269 264 254 244 241 240 242 245 244 245 246 242 243 262 288 283 278 279 266 251 240 226 219 217 219 224 229 233 238 239 239 236 229 219 233 255 271 283 282 289 298 300 305 300 286 274 267 265 267 269 270 270
357 352 352 351 342 328 319 313 306 298 290 295 302 304 306 307 306 309 315 318 319 321 323 326 332 332 331 329 323 315 305 294 288 287 286 283 281 280 273 266 266 261 255 254 253 250 245 240 240 239 237 244 253 261 243 232 234 238 233 224 227 236 243 252 253 240 233 234 227 224 243 262 271 277 282 290 296 295 299 298 289 281 274 271 272 273 271 269
354 345 347 351 349 347 343 321 314 314 304 301 304 301 298 299 302 307 313 317 316 317 320 326 332 334 333 330 326 321 311 301 294 290 292 291 286 284 283 283 287 286 276 268 264 260 249 244 247 249 246 251 262 266 259 249 248 252 252 247 250 260 265 267 262 248 246 247 245 249 259 270 274 278 284 289 291 290 291 290 287 285 281 278 276 273 272 270
348 345 349 357 359 359 2 349 329 323 317 309 304 299 299 302 305 309 311 312 311 314 319 325 330 331 328 324 322 319 314 309 301 297 299 301 297 293 291 288 289 289 290 287 278 265 253 249 252 256 257 262 270 271 262 255 256 259 258 255 256 265 269 264 257 257 259 258 257 263 270 276 279 283 285 287 289 287 285 283 281 279 277 276 275 273 272 271
342 339 345 1 9 354 348 348 333 325 323 315 303 299 299 300 304 308 308 307 308 312 317 322 325 326 325 322 317 312 310 308 303 301 304 307 306 304 299 293 287 285 292 303 300 288 278 275 272 267 266 265 266 265 259 252 254 258 259 261 263 266 268 265 261 261 264 261 264 273 281 283 285 289 290 290 287 279 276 276 274 273 272 270 269 270 273 274
342 332 336 347 355 343 328 330 325 322 327 322 307 301 298 297 301 304 304 306 309 310 314 319 321 324 325 320 311 305 303 302 300 300 304 306 306 306 305 303 298 292 292 300 304 299 292 290 288 281 276 271 265 264 260 253 253 256 259 264 268 267 267 268 266 264 266 267 271 278 283 284 287 292 292 289 283 277 278 280 279 278 276 270 265 268 275 279
351 336 332 332 335 335 328 322 316 316 326 327 316 312 310 307 308 306 305 309 311 313 317 320 319 318 317 311 302 295 290 287 286 290 296 301 302 303 306 307 305 302 300 299 299 296 289 285 282 283 286 280 273 272 267 256 252 255 258 261 264 267 268 269 267 265 266 268 272 276 279 283 288 290 288 287 286 285 286 287 286 283 278 272 269 272 278 279
1 343 332 325 324 326 325 320 312 309 316 324 323 322 322 319 318 317 315 317 320 321 319 317 313 311 308 303 296 291 289 286 284 284 286 290 294 297 298 297 298 298 295 292 291 289 287 283 280 286 290 285 282 284 280 270 263 262 261 263 266 268 270 271 271 271 269 268 271 272 273 279 285 285 284 287 289 290 292 292 289 283 276 273 270 271 274 275
0 346 330 321 315 314 315 314 312 313 315 318 320 319 319 320 320 321 321 321 322 319 315 313 313 311 312 311 303 298 295 292 290 287 284 284 286 289 292 293 294 291 287 287 285 280 280 282 282 284 285 284 285 287 288 289 281 268 266 273 278 273 268 268 269 270 271 269 265 264 267 276 284 284 285 288 289 292 296 296 290 283 274 271 273 277 283 287
Height
3132 3130 3129 3128 3127 3126 3125 3124 3123 3122 3121 3120 3120 3119 3119 3118 3118 3117 3117 3116 3116 3115 3115 3114 3114 3114 3113 3113 3113 3112 3112 3112 3111 3111 3112 3111 3111 3111 3112 3112 3113 3113 3113 3114 3115 3115 3116 3116 3116 3117 3118 3118 3119 3120 3121 3122 3123 3125 3126 3127 3128 3129 3129 3130 3130 3130 3130 3130 3132 3133 3133 3134 3134 3134 3133 3133 3133 3133 3132 3131 3129 3128 3128 3128 3128 3129 3130 3131
3131 3130 3129 3128 3127 3125 3124 3123 3122 3121 3121 3120 3119 3119 3118 3118 3117 3116 3116 3116 3115 3115 3114 3114 3113 3113 3113 3112 3112 3112 3111 3111 3111 3111 3111 3111 3111 3111 3111 3112 3112 3112 3113 3114 3114 3115 3115 3116 3116 3117 3117 3118 3119 3120 3121 3122 3123 3124 3125 3126 3127 3128 3129 3129 3129 3130 3130 3130 3131 3132 3132 3133 3133 3132 3132 3132 3132 3132 3131 3131 3129 3127 3127 3127 3128 3128 3129 3129
3131 3130 3129 3128 3126 3125 3124 3123 3122 3121 3120 3119 3119 3118 3118 3117 3116 3116 3115 3115 3114 3114 3114 3113 3113 3112 3112 3112 3111 3111 3111 3111 3110 3110 3110 3110 3110 3110 3111 3111 3111 3112 3113 3113 3114 3114 3115 3116 3116 3117 3117 3118 3119 3120 3121 3122 3123 3124 3125 3126 3127 3128 3128 3128 3129 3129 3129 3130 3130 3130 3131 3132 3132 3131 3131 3131 3131 3131 3131 3130 3129 3127 3127 3127 3128 3128 3129 3129
3132 3130 3129 3128 3126 3125 3124 3122 3121 3120 3120 3119 3118 3118 3117 3116 3115 3115 3115 3114 3114 3113 3113 3113 3112 3112 3112 3111 3111 3111 3110 3110 3110 3110 3110 3110 3110 3110 3110 3111 3111 3112 3112 3113 3114 3114 3115 3116 3116 3117 3118 3118 3119 3120 3121 3122 3123 3124 3124 3125 3126 3127 3127 3128 3128 3128 3129 3129 3129 3130 3130 3130 3131 3131 3130 3130 3130 3130 3130 3130 3129 3128 3127 3127 3127 3128 3128 3128
3132 3130 3129 3127 3126 3125 3123 3122 3121 3120 3119 3118 3118 3117 3117 3116 3115 3114 3114 3114 3113 3113 3113 3112 3112 3111 3111 3111 3111 3110 3110 3111 3110 3110 3110 3110 3110 3110 3110 3111 3111 3111 3112 3113 3113 3114 3114 3115 3116 3117 3118 3119 3119 3120 3121 3122 3123 3124 3124 3125 3126 3126 3126 3127 3127 3127 3128 3128 3129 3129 3129 3130 3130 3130 3129 3129 3128 3128 3129 3129 3128 3128 3127 3127 3127 3127 3127 3127
3132 3131 3129 3127 3126 3124 3123 3122 3120 3119 3118 3118 3117 3116 3116 3115 3114 3114 3113 3113 3113 3112 3112 3112 3111 3111 3111 3110 3110 3110 3110 3111 3110 3110 3110 3110 3110 3110 3110 3111 3111 3112 3112 3113 3113 3114 3114 3115 3116 3117 3118 3119 3120 3120 3121 3122 3123 3123 3124 3124 3125 3125 3126 3126 3126 3127 3127 3127 3128 3128 3129 3129 3129 3129 3128 3128 3127 3126 3127 3128 3127 3127 3127 3127 3126 3126 3126 3126
3132 3130 3129 3127 3126 3124 3123 3121 3120 3119 3118 3117 3116 3116 3115 3114 3113 3113 3113 3112 3112 3112 3112 3111 3111 3111 3111 3110 3110 3110 3110 3110 3110 3110 3110 3110 3110 3110 3110 3111 3111 3112 3112 3113 3113 3114 3115 3115 3116 3117 3118 3119 3120 3121 3121 3122 3122 3123 3123 3124 3124 3125 3125 3125 3126 3126 3126 3127 3127 3127 3128 3128 3128 3127 3127 3126 3125 3124 3125 3125 3125 3126 3126 3126 3126 3125 3125 3125
3132 3130 3129 3127 3126 3124 3123 3121 3120 3118 3117 3116 3116 3115 3114 3113 3113 3112 3112 3112 3112 3111 3111 3111 3111 3111 3110 3110 3110 3109 3109 3110 3110 3110 3110 3110 3110 3110 3111 3111 3111 3112 3113 3113 3114 3114 3115 3116 3117 3117 3118 3119 3120 3120 3121 3122 3122 3122 3123 3123 3124 3124 3124 3125 3125 3125 3125 3126 3126 3126 3126 3127 3126 3126 3125 3124 3124 3123 3123 3123 3124 3124 3125 3126 3125 3124 3124 3124
3132 3130 3129 3127 3126 3124 3122 3121 3119 3118 3117 3116 3115 3115 3114 3113 3112 3112 3111 3111 3111 3111 3111 3110 3110 3110 3110 3110 3110 3109 3109 3109 3109 3109 3109 3110 3110 3110 3110 3111 3112 3112 3113 3113 3114 3115 3116 3116 3117 3118 3118 3119 3120 3120 3121 3121 3122 3122 3123 3123 3123 3124 3124 3124 3124 3124 3124 3124 3124 3124 3125 3125 3125 3124 3123 3123 3123 3122 3122 3123 3123 3123 3124 3125 3124 3123 3123 3123
3131 3130 3128 3127 3125 3124 3122 3121 3119 3118 3117 3116 3115 3114 3113 3112 3112 3111 3111 3111 3110 3110 3110 3110 3110 3110 3110 3110 3110 3109 3109 3109 3109 3109 3109 3109 3109 3110 3110 3111 3111 3112 3113 3113 3114 3115 3116 3117 3118 3118 3118 3119 3120 3120 3120 3121 3121 3122 3122 3123 3123 3123 3123 3123 3123 3123 3123 3123 3123 3123 3124 3124 3124 3123 3122 3122 3122 3122 3122 3122 3122 3122 3123 3124 3124 3124 3123 3123
3131 3129 3128 3127 3125 3124 3122 3121 3119 3118 3116 3115 3114 3114 3113 3112 3111 3111 3110 3110 3110 3109 3109 3109 3109 3109 3109 3110 3109 3109 3109 3108 3109 3108 3108 3109 3109 3110 3110 3110 3111 3112 3112 3113 3114 3115 3116 3117 3117 3118 3119 3119 3119 3120 3120 3121 3121 3121 3122 3122 3122 3122 3122 3122 3122 3122 3122 3122 3122 3122 3123 3123 3122 3122 3121 3120 3120 3121 3121 3121 3121 3122 3122 3123 3124 3124 3123 3124
3130 3129 3128 3126 3125 3123 3122 3121 3119 3118 3116 3115 3114 3113 3112 3112 3111 3110 3110 3110 3109 3109 3109 3108 3108 3109 3109 3109 3109 3109 3108 3108 3109 3109 3108 3109 3109 3109 3110 3110 3111 3111 3112 3113 3114 3114 3115 3116 3116 3117 3118 3118 3119 3119 3120 3120 3120 3121 3121 3122 3122 3122 3122 3121 3122 3122 3121 3121 3121 3122 3122 3122 3121 3120 3119 3118 3119 3119 3120 3120 3120 3120 3121 3121 3122 3123 3123 3124
3129 3128 3127 3126 3124 3123 3122 3120 3119 3118 3116 3115 3114 3113 3112 3111 3111 3110 3110 3109 3109 3108 3108 3108 3108 3108 3108 3109 3109 3109 3109 3108 3109 3109 3109 3109 3109 3109 3110 3110 3111 3111 3112 3113 3113 3113 3114 3114 3115 3115 3116 3117 3118 3119 3119 3119 3120 3120 3121 3121 3121 3121 3121 3121 3121 3121 3121 3120 3121 3121 3121 3121 3120 3119 3118 3117 3118 3118 3118 3118 3119 3119 3119 3120 3121 3122 3122 3123
3128 3127 3126 3125 3124 3122 3121 3120 3119 3117 3116 3115 3113 3112 3112 3111 3110 3110 3109 3109 3108 3108 3108 3108 3108 3108 3108 3108 3109 3109 3109 3109 3109 3109 3109 3109 3109 3110 3110 3110 3111 3111 3112 3112 3112 3113 3113 3113 3114 3114 3115 3116 3117 3118 3118 3118 3119 3119 3120 3120 3120 3120 3120 3120 3120 3120 3120 3120 3120 3120 3120 3120 3119 3118 3118 3117 3118 3118 3118 3118 3118 3119 3119 3120 3121 3122 3122 3122
3127 3125 3125 3124 3123 3122 3120 3119 3118 3117 3116 3114 3113 3112 3111 3110 3110 3109 3109 3108 3108 3108 3107 3107 3107 3107 3107 3108 3108 3108 3109 3109 3109 3109 3109 3109 3109 3109 3110 3110 3110 3111 3111 3112 3112 3112 3112 3112 3113 3113 3114 3115 3116 3117 3118 3118 3118 3119 3119 3119 3119 3120 3120 3120 3120 3120 3120 3120 3120 3120 3120 3119 3118 3118 3118 3118 3118 3118 3118 3118 3118 3119 3119 3120 3121 3121 3121 3120
3125 3124 3123 3122 3121 3120 3119 3118 3117 3116 3115 3114 3112 3111 3110 3109 3109 3108 3108 3107 3107 3107 3107 3107 3107 3107 3107 3107 3107 3108 3108 3108 3109 3109 3109 3109 3109 3109 3109 3110 3110 3111 3111 3111 3112 3112 3112 3112 3112 3113 3113 3115 3116 3116 3117 3117 3118 3118 3118 3119 3119 3119 3119 3119 3120 3119 3119 3119 3119 3119 3119 3118 3117 3117 3117 3117 3118 3118 3118 3118 3118 3119 3120 3120 3120 3119 3119 3118
3124 3123 3122 3121 3120 3119 3118 3117 3116 3116 3114 3113 3112 3110 3109 3108 3108 3107 3107 3106 3106 3106 3106 3106 3106 3106 3106 3106 3106 3107 3107 3107 3108 3108 3108 3108 3108 3108 3109 3109 3109 3110 3111 3111 3111 3111 3112 3112 3112 3112 3113 3114 3115 3116 3116 3117 3117 3117 3118 3118 3118 3119 3119 3118 3118 3119 3118 3119 3119 3118 3119 3118 3117 3116 3117 3117 3117 3117 3118 3118 3118 3119 3120 3121 3121 3120 3119 3118
3122 3121 3120 3119 3119 3118 3117 3116 3115 3115 3114 3112 3111 3110 3108 3107 3106 3106 3105 3105 3105 3104 3105 3105 3105 3106 3106 3105 3106 3106 3106 3107 3106 3106 3107 3107 3107 3107 3108 3108 3108 3109 3110 3111 3111 3111 3111 3111 3112 3112 3113 3114 3114 3115 3116 3116 3117 3117 3117 3117 3118 3118 3118 3118 3117 3117 3117 3118 3118 3117 3118 3118 3116 3116 3117 3117 3117 3117 3117 3118 3118 3118 3119 3120 3120 3120 3120 3120
3121 3120 3119 3118 3117 3117 3116 3115 3114 3114 3113 3111 3110 3109 3107 3106 3105 3104 3104 3103 3102 3102 3103 3103 3103 3104 3105 3105 3105 3106 3106 3106 3106 3105 3105 3106 3106 3106 3106 3107 3108 3108 3109 3110 3110 3110 3111 3111 3111 3112 3112 3114 3114 3115 3115 3116 3116 3116 3116 3117 3117 3117 3117 3117 3117 3117 3116 3116 3117 3117 3117 3117 3115 3116 3116 3116 3116 3117 3117 3117 3117 3117 3118 3118 3119 3119 3119 3120
3119 3118 3117 3116 3115 3115 3115 3114 3113 3112 3112 3110 3109 3107 3106 3105 3104 3103 3102 3101 3100 3100 3100 3101 3101 3103 3104 3104 3105 3105 3105 3105 3105 3105 3105 3105 3106 3106 3106 3106 3107 3108 3109 3109 3110 3110 3110 3110 3110 3111 3112 3113 3114 3114 3114 3115 3115 3115 3115 3116 3116 3116 3116 3116 3116 3116 3115 3115 3116 3116 3116 3115 3114 3114 3115 3115 3115 3115 3115 3115 3116 3116 3116 3117 3117 3118 3118 3118
3118 3117 3116 3115 3114 3113 3113 3112 3112 3111 3110 3109 3108 3107 3105 3104 3103 3102 3101 3100 3098 3097 3098 3099 3099 3100 3102 3103 3104 3104 3104 3104 3104 3104 3104 3104 3105 3105 3106 3106 3107 3107 3108 3109 3109 3109 3109 3109 3110 3111 3112 3112 3112 3113 3113 3113 3114 3114 3115 3115 3115 3115 3114 3115 3115 3115 3114 3114 3115 3115 3115 3114 3113 3113 3113 3113 3114 3114 3114 3114 3114 3114 3115 3115 3116 3116 3117 3117
3117 3116 3115 3114 3113 3112 3112 3111 3110 3110 3109 3108 3107 3105 3104 3103 3101 3100 3099 3098 3098 3096 3096 3096 3097 3099 3101 3102 3103 3103 3103 3104 3104 3103 3103 3103 3104 3105 3106 3106 3107 3107 3108 3108 3108 3109 3108 3108 3110 3111 3111 3111 3111 3112 3112 3112 3113 3113 3113 3114 3114 3113 3113 3114 3114 3113 3113 3113 3114 3114 3114 3113 3112 3112 3111 3112 3112 3112 3113 3113 3113 3113 3113 3114 3114 3115 3116 3116
3115 3114 3113 3113 3112 3111 3110 3110 3109 3108 3108 3106 3105 3104 3103 3102 3100 3099 3098 3097 3096 3095 3095 3095 3096 3097 3099 3100 3101 3102 3103 3103 3103 3103 3103 3103 3104 3105 3105 3106 3106 3107 3107 3107 3108 3108 3107 3108 3109 3109 3109 3110 3110 3111 3111 3111 3112 3112 3112 3112 3112 3112 3112 3112 3112 3112 3112 3113 3112 3113 3112 3112 3111 3111 3110 3110 3111 3111 3112 3112 3112 3112 3112 3113 3114 3114 3115 3115
3113 3113 3112 3111 3111 3110 3109 3109 3108 3107 3106 3105 3104 3103 3102 3101 3100 3098 3097 3096 3095 3095 3094 3095 3096 3097 3098 3099 3100 3101 3102 3102 3102 3102 3102 3103 3103 3104 3105 3105 3105 3106 3106 3106 3106 3106 3106 3107 3108 3108 3108 3108 3109 3109 3110 3110 3110 3111 3111 3111 3111 3111 3111 3111 3111 3111 3112 3111 3111 3111 3111 3110 3109 3109 3109 3109 3109 3109 3110 3111 3111 3111 3111 3112 3113 3113 3114 3114
3112 3111 3111 3110 3109 3109 3108 3107 3107 3106 3105 3104 3103 3103 3101 3100 3099 3098 3096 3095 3095 3094 3094 3095 3095 3097 3098 3099 3100 3101 3102 3102 3102 3102 3102 3102 3103 3103 3104 3104 3104 3105 3105 3105 3105 3105 3105 3106 3107 3107 3107 3107 3107 3108 3108 3108 3109 3109 3109 3110 3110 3110 3110 3110 3110 3110 3110 3110 3110 3110 3110 3108 3108 3108 3107 3107 3108 3108 3109 3109 3110 3110 3110 3111 3112 3112 3113 3113
3110 3110 3109 3108 3108 3108 3107 3106 3106 3105 3104 3103 3103 3102 3101 3100 3099 3097 3096 3095 3095 3094 3094 3095 3096 3097 3098 3099 3100 3101 3101 3101 3101 3101 3101 3102 3102 3102 3103 3103 3103 3104 3104 3104 3103 3103 3104 3105 3105 3105 3106 3106 3106 3107 3107 3107 3108 3108 3108 3108 3109 3109 3109 3109 3109 3109 3109 3109 3109 3109 3109 3108 3107 3107 3107 3107 3107 3107 3107 3108 3108 3109 3109 3109 3110 3111 3111 3112
3109 3108 3108 3107 3106 3106 3106 3105 3104 3104 3103 3103 3102 3101 3100 3099 3098 3097 3096 3095 3095 3095 3095 3095 3096 3097 3098 3099 3100 3100 3101 3101 3100 3100 3101 3101 3101 3102 3102 3102 3102 3103 3102 3102 3102 3102 3103 3104 3104 3104 3105 3105 3105 3106 3106 3107 3107 3106 3106 3107 3107 3108 3108 3108 3108 3108 3108 3107 3107 3107 3107 3106 3105 3105 3105 3106 3106 3106 3106 3106 3107 3107 3108 3108 3109 3109 3110 3111
3108 3107 3107 3106 3105 3104 3104 3103 3103 3102 3102 3102 3101 3100 3099 3099 3098 3097 3096 3096 3096 3095 3095 3096 3096 3097 3098 3099 3099 3100 3100 3100 3100 3100 3100 3100 3101 3101 3101 3101 3101 3102 3101 3101 3101 3101 3102 3102 3103 3103 3103 3104 3104 3105 3105 3105 3106 3105 3106 3106 3106 3107 3107 3107 3107 3107 3106 3106 3105 3105 3106 3105 3103 3102 3103 3103 3104 3104 3104 3104 3105 3106 3107 3107 3108 3108 3108 3109
3107 3106 3106 3105 3104 3103 3102 3102 3102 3101 3101 3100 3100 3099 3098 3098 3098 3097 3096 3097 3096 3095 3096 3096 3096 3097 3097 3098 3098 3099 3099 3099 3100 3100 3100 3100 3100 3100 3100 3100 3101 3101 3100 3100 3100 3101 3101 3101 3102 3102 3102 3103 3103 3104 3104 3104 3105 3104 3105 3105 3105 3105 3105 3105 3105 3105 3105 3104 3103 3103 3104 3104 3102 3100 3101 3102 3101 3101 3101 3102 3103 3104 3105 3106 3106 3107 3107 3108
3107 3106 3105 3104 3103 3102 3101 3100 3100 3100 3100 3099 3099 3098 3098 3098 3097 3097 3097 3096 3096 3096 3096 3096 3096 3097 3097 3097 3098 3098 3098 3099 3099 3099 3099 3099 3099 3099 3099 3099 3099 3100 3099 3099 3099 3100 3100 3101 3101 3101 3101 3102 3102 3102 3103 3103 3103 3103 3104 3104 3104 3104 3104 3104 3104 3104 3104 3103 3102 3102 3102 3102 3101 3099 3099 3099 3099 3099 3100 3101 3102 3102 3104 3104 3105 3105 3106 3106
3106 3105 3104 3103 3101 3100 3099 3099 3099 3099 3099 3099 3098 3097 3097 3097 3097 3097 3097 3096 3095 3096 3096 3096 3096 3096 3096 3097 3097 3097 3098 3098 3098 3098 3098 3098 3098 3098 3098 3099 3098 3098 3098 3098 3098 3098 3099 3099 3099 3099 3100 3100 3101 3101 3101 3102 3102 3102 3102 3103 3103 3103 3102 3102 3102 3102 3103 3102 3100 3100 3101 3101 3099 3097 3097 3097 3097 3098 3098 3099 3100 3101 3102 3103 3103 3104 3104 3105
3105 3104 3103 3102 3100 3099 3098 3098 3098 3098 3098 3098 3097 3097 3097 3096 3096 3097 3096 3096 3096 3096 3095 3095 3096 3096 3096 3096 3096 3097 3097 3097 3097 3097 3097 3097 3097 3097 3098 3098 3098 3098 3097 3097 3097 3097 3098 3098 3098 3098 3098 3099 3099 3099 3100 3100 3101 3101 3101 3101 3102 3102 3102 3102 3101 3102 3102 3100 3099 3099 3100 3099 3097 3096 3096 3096 3096 3097 3097 3097 3098 3099 3100 3101 3102 3103 3103 3103
3104 3103 3102 3100 3099 3098 3096 3096 3097 3097 3097 3097 3097 3097 3096 3096 3096 3096 3096 3096 3096 3096 3096 3096 3096 3095 3095 3095 3095 3095 3096 3096 3096 3096 3096 3096 3096 3097 3097 3097 3097 3097 3096 3096 3096 3096 3097 3097 3097 3097 3097 3097 3097 3098 3098 3099 3099 3099 3099 3100 3100 3101 3103 3103 3103 3103 3101 3098 3098 3098 3099 3097 3094 3094 3094 3094 3095 3095 3095 3096 3096 3098 3099 3100 3101 3101 3102 3102
3103 3102 3100 3099 3098 3097 3095 3095 3095 3096 3096 3097 3096 3096 3096 3096 3096 3097 3096 3096 3097 3096 3096 3096 3095 3094 3094 3094 3093 3094 3095 3095 3095 3095 3095 3095 3095 3095 3095 3095 3095 3095 3095 3095 3095 3096 3096 3096 3096 3096 3095 3095 3096 3096 3097 3097 3098 3098 3098 3098 3098 3098 3100 3101 3100 3100 3098 3097 3097 3097 3097 3095 3093 3093 3093 3093 3094 3093 3093 3093 3094 3095 3097 3099 3099 3099 3100 3100
3102 3100 3099 3098 3097 3096 3095 3094 3094 3095 3095 3096 3096 3096 3096 3096 3096 3097 3096 3096 3096 3096 3096 3095 3095 3094 3094 3094 3094 3094 3095 3094 3094 3095 3095 3095 3095 3094 3094 3094 3094 3093 3094 3094 3094 3094 3095 3095 3095 3095 3095 3094 3095 3095 3096 3096 3096 3096 3096 3096 3096 3096 3096 3097 3097 3097 3096 3097 3096 3096 3094 3092 3091 3092 3092 3092 3092 3092 3092 3092 3092 3093 3095 3096 3096 3097 3098 3098
3101 3099 3098 3097 3096 3095 3095 3095 3094 3095 3095 3095 3096 3096 3096 3096 3097 3097 3097 3096 3096 3095 3095 3095 3095 3094 3094 3094 3094 3094 3094 3094 3094 3094 3094 3094 3094 3093 3093 3093 3093 3093 3093 3093 3093 3093 3094 3094 3094 3094 3094 3094 3094 3094 3094 3094 3094 3094 3094 3094 3094 3094 3095 3095 3095 3096 3096 3097 3095 3093 3092 3091 3090 3090 3090 3090 3090 3090 3091 3090 3091 3092 3092 3093 3094 3095 3096 3096
3100 3098 3097 3096 3096 3095 3095 3095 3094 3094 3095 3095 3095 3096 3096 3096 3097 3097 3097 3096 3096 3096 3095 3095 3094 3094 3094 3094 3094 3094 3094 3094 3093 3093 3093 3093 3093 3092 3092 3092 3092 3092 3092 3092 3092 3092 3093 3093 3093 3093 3093 3093 3093 3093 3093 3093 3093 3092 3092 3092 3093 3093 3093 3094 3094 3095 3097 3097 3094 3091 3090 3090 3090 3089 3088 3088 3089 3089 3089 3089 3089 3090 3091 3092 3092 3093 3094 3094
3098 3097 3096 3095 3095 3095 3095 3094 3094 3094 3094 3095 3095 3095 3096 3096 3097 3097 3097 3096 3096 3096 3095 3095 3095 3095 3095 3094 3094 3093 3093 3093 3093 3092 3092 3092 3091 3091 3091 3091 3091 3091 3091 3092 3091 3091 3091 3092 3092 3092 3092 3092 3092 3092 3091 3091 3091 3091 3091 3091 3091 3091 3091 3092 3093 3094 3095 3096 3094 3090 3089 3089 3088 3087 3087 3087 3087 3087 3087 3087 3088 3089 3089 3090 3090 3091 3091 3092
3096 3096 3095 3095 3095 3095 3094 3094 3094 3094 3094 3095 3095 3095 3096 3096 3097 3097 3097 3096 3096 3096 3095 3095 3095 3095 3095 3094 3093 3093 3093 3092 3091 3091 3091 3091 3091 3090 3090 3090 3090 3090 3091 3091 3090 3090 3091 3091 3091 3091 3091 3091 3091 3090 3090 3089 3089 3089 3089 3089 3089 3089 3090 3090 3091 3091 3091 3094 3094 3090 3088 3087 3086 3086 3086 3086 3086 3086 3086 3086 3086 3087 3087 3088 3088 3089 3089 3090
3095 3095 3095 3095 3094 3094 3094 3094 3094 3094 3094 3095 3095 3096 3096 3096 3096 3097 3096 3096 3096 3095 3095 3095 3095 3095 3094 3094 3093 3092 3092 3091 3091 3090 3091 3091 3091 3090 3089 3089 3089 3089 3089 3090 3090 3090 3090 3090 3089 3089 3090 3090 3090 3089 3089 3088 3088 3087 3087 3087 3087 3088 3088 3088 3088 3088 3089 3091 3092 3090 3088 3085 3085 3085 3085 3085 3085 3085 3085 3085 3085 3085 3085 3086 3086 3087 3087 3088
3095 3095 3095 3095 3094 3094 3094 3094 3094 3094 3094 3095 3095 3096 3096 3096 3096 3096 3096 3096 3095 3095 3095 3095 3094 3094 3093 3093 3092 3092 3091 3090 3090 3090 3089 3090 3090 3089 3088 3088 3088 3088 3088 3089 3089 3088 3088 3088 3087 3087 3088 3088 3088 3088 3087 3086 3086 3086 3086 3085 3085 3086 3086 3086 3086 3086 3086 3087 3088 3088 3086 3083 3084 3085 3084 3084 3085 3084 3084 3083 3083 3083 3083 3083 3084 3085 3085 3085
3096 3095 3095 3095 3094 3094 3094 3094 3094 3094 3095 3095 3095 3096 3096 3096 3096 3096 3096 3096 3095 3094 3094 3094 3093 3093 3092 3092 3091 3091 3090 3089 3089 3089 3088 3088 3088 3087 3087 3087 3087 3087 3087 3088 3088 3087 3087 3087 3086 3085 3085 3085 3085 3085 3085 3084 3084 3084 3084 3083 3084 3084 3084 3084 3084 3083 3084 3084 3085 3085 3084 3081 3082 3083 3083 3083 3083 3083 3082 3082 3081 3081 3081 3081 3082 3082 3083 3083
3096 3095 3095 3095 3094 3094 3094 3094 3094 3095 3095 3096 3096 3096 3096 3096 3096 3096 3095 3095 3095 3094 3094 3093 3093 3092 3091 3091 3090 3090 3089 3088 3087 3087 3087 3087 3086 3086 3086 3086 3086 3086 3086 3086 3086 3085 3085 3085 3084 3084 3083 3083 3083 3083 3083 3082 3082 3082 3081 3081 3082 3082 3081 3082 3082 3081 3082 3082 3082 3084 3082 3079 3080 3081 3082 3081 3081 3081 3080 3080 3079 3079 3079 3079 3079 3080 3080 3080
3096 3095 3095 3094 3094 3094 3094 3094 3095 3095 3095 3096 3096 3096 3096 3096 3095 3095 3095 3094 3094 3094 3093 3092 3092 3091 3091 3090 3089 3089 3088 3088 3086 3085 3085 3085 3085 3084 3084 3085 3084 3084 3084 3084 3083 3083 3083 3083 3083 3082 3082 3082 3082 3081 3081 3080 3080 3080 3080 3080 3080 3080 3080 3080 3080 3080 3080 3079 3080 3081 3079 3077 3078 3080 3080 3080 3079 3079 3078 3078 3077 3077 3077 3077 3077 3077 3077 3077
3096 3095 3094 3094 3093 3093 3093 3094 3094 3095 3095 3095 3096 3095 3095 3095 3094 3094 3094 3094 3093 3093 3092 3092 3091 3090 3090 3089 3088 3088 3087 3087 3086 3085 3084 3084 3084 3083 3083 3082 3082 3082 3082 3082 3081 3081 3081 3081 3081 3081 3081 3081 3081 3081 3080 3080 3080 3080 3080 3080 3080 3079 3079 3079 3079 3079 3078 3076 3077 3076 3074 3075 3077 3078 3077 3078 3077 3076 3076 3076 3075 3075 3075 3075 3075 3075 3075 3075
3096 3095 3094 3093 3093 3093 3093 3093 3093 3094 3094 3094 3095 3094 3094 3094 3094 3093 3093 3093 3092 3092 3091 3091 3090 3089 3089 3088 3087 3086 3086 3085 3085 3083 3083 3082 3082 3082 3081 3081 3080 3080 3080 3080 3080 3080 3079 3079 3078 3078 3078 3078 3078 3079 3079 3079 3079 3078 3078 3078 3078 3078 3078 3078 3078 3076 3075 3075 3074 3072 3072 3074 3074 3075 3076 3075 3075 3074 3074 3073 3073 3072 3072 3072 3072 3072 3072 3072
3095 3095 3094 3093 3093 3092 3092 3092 3092 3092 3092 3093 3093 3093 3093 3093 3093 3093 3092 3092 3091 3090 3090 3089 3089 3088 3087 3087 3086 3085 3084 3084 3083 3082 3081 3081 3080 3080 3080 3079 3079 3078 3078 3078 3078 3078 3077 3076 3077 3076 3076 3076 3076 3077 3077 3077 3076 3076 3076 3076 3076 3076 3076 3076 3075 3074 3074 3074 3070 3069 3072 3072 3071 3073 3073 3072 3072 3071 3071 3071 3070 3069 3069 3069 3070 3070 3070 3069
3095 3094 3094 3093 3093 3092 3092 3092 3092 3091 3091 3091 3091 3091 3091 3091 3091 3091 3091 3091 3090 3090 3089 3088 3088 3087 3086 3086 3085 3084 3083 3082 3081 3080 3080 3079 3078 3078 3078 3078 3077 3077 3077 3077 3077 3076 3076 3075 3075 3075 3074 3074 3074 3074 3074 3075 3074 3073 3073 3073 3073 3074 3073 3072 3072 3072 3072 3070 3067 3068 3070 3069 3068 3070 3070 3069 3069 3068 3067 3067 3067 3067 3067 3067 3067 3067 3067 3067
3094 3094 3093 3093 3093 3092 3092 3092 3091 3091 3090 3090 3089 3090 3090 3090 3090 3090 3089 3089 3089 3089 3088 3087 3087 3086 3085 3085 3084 3082 3081 3081 3080 3079 3078 3077 3077 3076 3076 3076 3076 3075 3075 3075 3075 3075 3074 3073 3073 3073 3072 3072 3072 3072 3072 3072 3071 3070 3070 3070 3070 3070 3070 3069 3069 3069 3069 3067 3066 3067 3067 3065 3066 3067 3066 3066 3066 3065 3064 3064 3064 3064 3064 3063 3064 3064 3064 3064
3094 3094 3093 3092 3092 3092 3091 3091 3091 3090 3090 3089 3089 3088 3089 3089 3089 3089 3088 3088 3088 3087 3087 3086 3085 3084 3084 3083 3082 3081 3080 3079 3078 3077 3077 3076 3075 3075 3075 3074 3074 3074 3074 3074 3074 3074 3073 3072 3072 3071 3070 3070 3070 3070 3070 3069 3069 3067 3066 3066 3067 3066 3066 3066 3065 3066 3065 3064 3064 3065 3064 3062 3064 3064 3064 3064 3063 3062 3062 3062 3061 3061 3060 3060 3061 3061 3061 3062
3094 3094 3093 3093 3092 3091 3091 3090 3090 3089 3089 3089 3088 3088 3087 3087 3087 3087 3087 3086 3086 3085 3085 3084 3083 3082 3082 3081 3080 3079 3078 3077 3076 3075 3075 3074 3073 3073 3073 3073 3073 3072 3072 3072 3072 3072 3072 3071 3070 3070 3069 3067 3068 3068 3067 3067 3066 3064 3063 3062 3063 3063 3062 3062 3062 3062 3062 3061 3061 3062 3060 3060 3061 3062 3061 3061 3061 3060 3060 3059 3058 3058 3057 3057 3058 3058 3059 3059
3095 3094 3093 3093 3092 3091 3090 3090 3089 3089 3088 3088 3087 3087 3087 3086 3086 3085 3085 3085 3084 3084 3083 3082 3081 3080 3079 3078 3077 3076 3075 3074 3073 3073 3072 3072 3071 3071 3071 3070 3071 3070 3069 3070 3070 3070 3070 3069 3069 3069 3067 3065 3066 3066 3065 3066 3065 3060 3058 3059 3060 3059 3059 3059 3059 3059 3059 3059 3059 3058 3058 3059 3059 3059 3059 3059 3058 3058 3057 3057 3056 3055 3055 3055 3056 3056 3056 3057